Regional Weather Roundup
Issued by NWS Sterling, VA

Home | Current Version | Previous Version | Text Only | Print | Product List | Glossary Off
Versions: 1 2 3 4 5 6 7 8 9 10 11 12 13 14 15 16 17 18 19 20 21 22 23 24 25 26 27

000
ASUS41 KLWX 191910
RWRLWX

REGIONAL WEATHER ROUNDUP
NATIONAL WEATHER SERVICE BALTIMORE MD/WASHINGTON DC
300 PM EDT SAT APR 19 2014

Note: "FAIR" indicates few or no clouds below 12,000 feet
with no significant weather and/or obstructions to visibility.
 TC=TEMPERATURE CELSIUS

 * =Non NWS site. Station does not report precipitation (e.g. rain,
    snow, etc.), thunder, or fog.

DCZ001-MDZ009-015-VAZ040>042-051-053>054-192000-
WASHINGTON METRO

CITY           SKY/WX    TMP DP  RH WIND       PRES   REMARKS
WASHINGTON NAT CLOUDY    70  37  29 NE9       30.24F
DULLES         PTSUNNY   66  33  29 VRB3G16   30.24F
ANDREWS AFB    PTSUNNY   66  38  35 E7        30.23F
FT BELVOIR     CLOUDY    68  36  30 VRB6      30.24F
QUANTICO       CLOUDY    66  41  40 E9        30.25F
COLLEGE PARK*  PTSUNNY   68  32  26 NE7       30.23F
LEESBURG*      PTSUNNY   68  39  34 NE6       30.25F
MANASSAS*      CLOUDY    68  36  30 N5        30.24F
GAITHERSBURG*  PTSUNNY   66  28  24 N8        30.27F

$$

MDZ006>007-011-014-192000-
BALTIMORE METRO

CITY           SKY/WX    TMP DP  RH WIND       PRES   REMARKS
BWI AIRPORT    CLOUDY    67  31  26 NE5G17    30.23F
MD SCIENCE CTR   N/A     67  37  33 MISG      30.24F
MARTIN STATE   PTSUNNY   66  43  42 E8        30.26F
ANNAPOLIS      PTSUNNY   62  38  40 SE6       30.25F
FORT MEADE*    PTSUNNY   68  32  26 NE6       30.26S

$$

MDZ012-015-019>023-192000-
MARYLAND EASTERN SHORE

CITY           SKY/WX    TMP DP  RH WIND       PRES   REMARKS
OCEAN CITY     PTSUNNY   57  39  51 NE8       30.26F
SALISBURY      CLOUDY    65  41  41 E10       30.24F
BAY BRIDGE AP* PTSUNNY   63  41  45 W5        30.25S
CAMBRIDGE*     PTSUNNY   64  36  34 N8        30.23F
EASTON*        CLOUDY    68  39  34 NE9       30.28F

$$

MDZ017>025-192000-
SOUTHERN MARYLAND

CITY           SKY/WX    TMP DP  RH WIND       PRES   REMARKS
PATUXENT RIVER CLOUDY    62  42  47 NE7       30.25F
ST INIGOES     CLOUDY    61  43  51 NE6       30.25F
LEONARDTOWN*   CLOUDY    61  39  44 NE3       30.26F

$$

MDZ003>005-192000-
NORTH CENTRAL MARYLAND

CITY           SKY/WX    TMP DP  RH WIND       PRES   REMARKS
FREDERICK*     SUNNY     66  37  34 NE5       30.28F
HAGERSTOWN APT PTSUNNY   65  30  27 NE12      30.25F
WESTMINSTER*   PTSUNNY   63  21  20 N8        30.26F

$$

MDZ501>502-192000-
WESTERN MARYLAND

CITY           SKY/WX    TMP DP  RH WIND       PRES   REMARKS
OAKLAND*       CLOUDY    57  12  17 NE5       30.26S
CUMBERLAND*    CLOUDY    70  32  24 NE13      30.27F

$$

VAZ025>031-192000-
SHENANDOAH VALLEY

CITY           SKY/WX    TMP DP  RH WIND       PRES   REMARKS
WINCHESTER*    PTSUNNY   64  34  32 N7        30.25S
STAUNTON*      CLOUDY    64  36  34 NE12G18   30.25S

$$

WVZ021-048>050-054>055-192000-
EASTERN WEST VIRGINIA PANHANDLE

CITY           SKY/WX    TMP DP  RH WIND       PRES   REMARKS
MARTINSBURG    PTSUNNY   68  29  23 N8G18     30.25F
PETERSBURG*    CLOUDY    69  44  40 NE6       30.25F

$$

VAZ036>039-050-192000-
CENTRAL FOOTHILLS

CITY           SKY/WX    TMP DP  RH WIND       PRES   REMARKS
CHARLOTTESVILL CLOUDY    64  40  41 E7        30.23F
CULPEPER*      CLOUDY    70  32  24 NE12      30.25S

$$

VAZ055>057-192000-
NORTH AND CENTRAL PIEDMONT

CITY           SKY/WX    TMP DP  RH WIND       PRES   REMARKS
FREDERICKSBRG* CLOUDY    66  41  39 E9        30.24F
STAFFORD*      CLOUDY    66  39  36 NE10G16   30.28F

$$

NCZ024-NYZ072-PAZ021-071-VAZ022-071-192000-
OTHER REGIONAL OBSERVATIONS

CITY           SKY/WX    TMP DP  RH WIND       PRES   REMARKS
NEW YORK CITY  SUNNY     66  25  21 NE9       30.25S
PHILADELPHIA   PTSUNNY   68  26  20 N8G16     30.25S
PITTSBURGH     PTSUNNY   62  22  21 NE7       30.29F
ROANOKE        CLOUDY    63  39  41 NE7       30.23F
RICHMOND       CLOUDY    65  38  36 E12       30.22F
RALEIGH        CLOUDY    51  45  79 NE9G17    30.18R

$$

ANZ530>537-192000-
MARINE OBSERVATIONS

STATION/POSITION TIME  TEMP    WIND        PRES
                       AIR SEA DIR/SP/G
                 (UTC) (F)     (DEG/KT/KT) (MB)
THOMAS PT LIGHT  1900   59 54   CALM  /  1 1024.8F
BALT KEY BRIDGE  1900   58     140/  8/  8 1024.1F
COVE POINT       1900   53     340/  9/ 11 1024.5F
LEWISETTA        1900   57 54   40/  2/  4 1024.2F
SOLOMONS ISLAND  1900      53                N/A
PINEY POINT      1900          100/  9/ 10   N/A

$$




USA.gov is the U.S. government's official web portal to all federal, state and local government web resources and services.